TimeICT,TemperatureF,Dew PointF,Humidity,Sea Level PressureIn,VisibilityMPH,Wind Direction,Wind SpeedMPH,Gust SpeedMPH,PrecipitationIn,Events,Conditions,WindDirDegrees,DateUTC
12:00 AM,77.0,73.4,89,29.89,1.2,Calm,Calm,-,N/A,,Mostly Cloudy,0,2012-12-03 17:00:00
12:30 AM,75.2,71.6,89,29.86,1.2,Calm,Calm,-,N/A,,Mostly Cloudy,0,2012-12-03 17:30:00
1:00 AM,75.2,71.6,89,29.86,1.2,Calm,Calm,-,N/A,,Mostly Cloudy,0,2012-12-03 18:00:00
1:30 AM,75.2,71.6,89,29.86,1.2,Calm,Calm,-,N/A,,Mostly Cloudy,0,2012-12-03 18:30:00
2:00 AM,75.2,71.6,89,29.86,1.2,Calm,Calm,-,N/A,,Mostly Cloudy,0,2012-12-03 19:00:00
2:30 AM,75.2,71.6,89,29.83,1.2,Calm,Calm,-,N/A,,Mostly Cloudy,0,2012-12-03 19:30:00
3:00 AM,75.2,71.6,89,29.83,1.2,Calm,Calm,-,N/A,,Mostly Cloudy,0,2012-12-03 20:00:00
3:30 AM,75.2,71.6,89,29.83,1.2,Calm,Calm,-,N/A,,Mostly Cloudy,0,2012-12-03 20:30:00
4:00 AM,75.2,71.6,89,29.83,0.9,Calm,Calm,-,N/A,,Mostly Cloudy,0,2012-12-03 21:00:00
4:30 AM,75.2,71.6,89,29.83,0.9,Calm,Calm,-,N/A,,Mostly Cloudy,0,2012-12-03 21:30:00
5:00 AM,75.2,71.6,89,29.83,0.9,Calm,Calm,-,N/A,,Mostly Cloudy,0,2012-12-03 22:00:00
5:30 AM,73.4,71.6,94,29.83,0.9,Calm,Calm,-,N/A,,Mostly Cloudy,0,2012-12-03 22:30:00
6:00 AM,75.2,71.6,89,29.83,1.2,Calm,Calm,-,N/A,,Mostly Cloudy,0,2012-12-03 23:00:00
6:30 AM,75.2,71.6,89,29.86,1.2,Calm,Calm,-,N/A,,Mostly Cloudy,0,2012-12-03 23:30:00
7:00 AM,75.2,71.6,89,29.86,1.2,Calm,Calm,-,N/A,,Mostly Cloudy,0,2012-12-04 00:00:00
7:30 AM,77.0,73.4,89,29.86,1.2,Calm,Calm,-,N/A,,Mostly Cloudy,0,2012-12-04 00:30:00
8:00 AM,77.0,73.4,89,29.89,1.2,Calm,Calm,-,N/A,,Mostly Cloudy,0,2012-12-04 01:00:00
8:30 AM,78.8,73.4,83,29.89,1.2,ENE,4.6,-,N/A,,Mostly Cloudy,60,2012-12-04 01:30:00
9:00 AM,80.6,73.4,79,29.92,1.9,ENE,3.5,-,N/A,,Mostly Cloudy,70,2012-12-04 02:00:00
9:30 AM,82.4,73.4,74,29.92,2.5,Calm,Calm,-,N/A,,Mostly Cloudy,0,2012-12-04 02:30:00
10:00 AM,84.2,71.6,66,29.92,3.1,East,3.5,-,N/A,,Mostly Cloudy,90,2012-12-04 03:00:00
10:30 AM,86.0,71.6,62,29.89,4.3,Calm,Calm,-,N/A,,Mostly Cloudy,0,2012-12-04 03:30:00
11:00 AM,87.8,71.6,58,29.89,4.3,Calm,Calm,-,N/A,,Mostly Cloudy,0,2012-12-04 04:00:00
11:30 AM,87.8,69.8,55,29.89,5.0,Calm,Calm,-,N/A,,Mostly Cloudy,0,2012-12-04 04:30:00
12:00 PM,89.6,71.6,55,29.86,5.0,Calm,Calm,-,N/A,,Mostly Cloudy,0,2012-12-04 05:00:00
12:30 PM,89.6,69.8,52,29.86,5.0,SW,6.9,-,N/A,,Mostly Cloudy,220,2012-12-04 05:30:00
1:00 PM,87.8,71.6,58,29.83,5.0,South,6.9,-,N/A,,Mostly Cloudy,170,2012-12-04 06:00:00
1:30 PM,87.8,71.6,58,29.83,5.0,SSW,9.2,-,N/A,,Mostly Cloudy,210,2012-12-04 06:30:00
2:00 PM,87.8,71.6,58,29.80,5.0,SW,9.2,-,N/A,,Mostly Cloudy,220,2012-12-04 07:00:00
2:30 PM,87.8,71.6,58,29.80,5.6,South,5.8,-,N/A,,Mostly Cloudy,190,2012-12-04 07:30:00
3:00 PM,87.8,73.4,62,29.77,5.6,South,4.6,-,N/A,,Mostly Cloudy,190,2012-12-04 08:00:00
3:30 PM,87.8,69.8,55,29.77,6.2,SSW,3.5,-,N/A,,Mostly Cloudy,200,2012-12-04 08:30:00
4:00 PM,87.8,71.6,58,29.77,6.2,SSW,3.5,-,N/A,,Mostly Cloudy,210,2012-12-04 09:00:00
4:30 PM,86.0,71.6,62,29.77,6.2,South,3.5,-,N/A,,Mostly Cloudy,190,2012-12-04 09:30:00
5:00 PM,86.0,71.6,62,29.80,6.2,SW,3.5,-,N/A,,Mostly Cloudy,220,2012-12-04 10:00:00
5:30 PM,84.2,71.6,66,29.80,6.2,SSW,3.5,-,N/A,,Mostly Cloudy,210,2012-12-04 10:30:00
6:00 PM,82.4,71.6,70,29.80,5.6,SW,3.5,-,N/A,,Mostly Cloudy,220,2012-12-04 11:00:00
6:30 PM,82.4,71.6,70,29.80,5.6,Calm,Calm,-,N/A,,Mostly Cloudy,0,2012-12-04 11:30:00
7:00 PM,80.6,73.4,79,29.83,5.6,Calm,Calm,-,N/A,,Mostly Cloudy,0,2012-12-04 12:00:00
7:30 PM,80.6,71.6,74,29.83,5.6,Calm,Calm,-,N/A,,Mostly Cloudy,0,2012-12-04 12:30:00
8:00 PM,78.8,73.4,83,29.83,5.0,Calm,Calm,-,N/A,,Mostly Cloudy,0,2012-12-04 13:00:00
8:30 PM,78.8,71.6,78,29.83,5.6,Calm,Calm,-,N/A,,Mostly Cloudy,0,2012-12-04 13:30:00
9:00 PM,78.8,73.4,83,29.83,5.0,Calm,Calm,-,N/A,,Mostly Cloudy,0,2012-12-04 14:00:00
9:30 PM,78.8,73.4,83,29.86,5.0,Calm,Calm,-,N/A,,Mostly Cloudy,0,2012-12-04 14:30:00
10:00 PM,78.8,73.4,83,29.86,4.3,Calm,Calm,-,N/A,,Mostly Cloudy,0,2012-12-04 15:00:00
10:30 PM,78.8,73.4,83,29.86,4.3,Calm,Calm,-,N/A,,Mostly Cloudy,0,2012-12-04 15:30:00
11:00 PM,78.8,73.4,83,29.86,4.3,Calm,Calm,-,N/A,,Mostly Cloudy,0,2012-12-04 16:00:00
11:30 PM,75.2,71.6,89,29.86,4.3,Calm,Calm,-,N/A,,Mostly Cloudy,0,2012-12-04 16:30:00